Weather History for Gwinner, ND

Change the Weather History Date:

Thursday, April 11, 2013

  Actual Average (KP67) Record (KP67)
Temperature  
Mean Temperature 31 °F -  
Max Temperature 32 °F 43 °F 70 °F (1998)
Min Temperature 30 °F 26 °F 12 °F (1997)
Degree Days  
Heating Degree Days 34    
Moisture  
Dew Point 31 °F    
Average Humidity 99    
Maximum Humidity 100    
Minimum Humidity 87    
Precipitation  
Precipitation 0.01 in - - ()
Sea Level Pressure  
Sea Level Pressure 29.85 in    
Wind  
Wind Speed 15 mph (NNE)    
Max Wind Speed 21 mph    
Max Gust Speed 26 mph    
Visibility 4 miles    
Events      
Averages and records for this station are not official NWS values.
T = Trace of Precipitation, MM = Missing Value Source: NWS Daily Summary

Daily Weather History Graph

Daily Weather History Graph

Search for Another Location

Airport:

Trip Planner

Search our weather history database for the weather conditions in past years. The results will help you decide how hot, cold, wet, or windy it might be!

Date:

Astronomy

Apr. 11, 2013 Rise Set
Actual Time 6:50 AM CDT 8:13 PM CDT
Civil Twilight 6:19 AM CDT 8:44 PM CDT
Nautical Twilight 5:42 AM CDT 9:21 PM CDT
Astronomical Twilight 5:02 AM CDT 10:02 PM CDT
Moon 7:18 AM CDT (4/11) 9:55 PM CDT (4/11)
Length of Visible Light 14h 24m
Length of Day
13h 22m
New Moon, 2% of the Moon is Illuminated
Apr 11
New Moon
Apr 18
First Quarter
Apr 25
Full
May 2
Last Quarter
May 9
New

Hourly Weather History & Observations

Time (CDT) Temp. Windchill Dew Point Humidity Pressure Visibility Wind Dir Wind Speed Gust Speed Precip Events Conditions
12:15 AM 32.0 °F 22.5 °F 30.2 °F 93% 29.99 in 10.0 mi North 12.7 mph - 0.00 in   Mostly Cloudy
12:35 AM 32.0 °F 22.5 °F 28.4 °F 87% 29.98 in 10.0 mi North 12.7 mph - 0.00 in   Mostly Cloudy
12:55 AM 32.0 °F 22.5 °F 30.2 °F 93% 29.99 in 10.0 mi NNE 12.7 mph 19.6 mph 0.00 in   Partly Cloudy
1:15 AM 32.0 °F 22.5 °F 30.2 °F 93% 29.99 in 10.0 mi NNE 12.7 mph - 0.00 in   Mostly Cloudy
1:35 AM 32.0 °F 23.6 °F 30.2 °F 93% 29.98 in 9.0 mi ENE 10.4 mph 17.3 mph 0.00 in   Overcast
1:55 AM 32.0 °F 24.2 °F 30.2 °F 93% 29.98 in 3.0 mi ENE 9.2 mph - 0.00 in   Mostly Cloudy
2:15 AM 32.0 °F 24.8 °F 32.0 °F 100% 29.97 in 10.0 mi NE 8.1 mph - 0.00 in   Mostly Cloudy
2:35 AM 32.0 °F 23.0 °F 32.0 °F 100% 29.96 in 4.0 mi NE 11.5 mph - 0.00 in   Mostly Cloudy
2:55 AM 32.0 °F 23.0 °F 32.0 °F 100% 29.94 in 10.0 mi NE 11.5 mph - 0.00 in   Overcast
3:15 AM 32.0 °F 23.0 °F 32.0 °F 100% 29.93 in 10.0 mi NE 11.5 mph - 0.00 in   Overcast
3:35 AM 32.0 °F 22.1 °F 32.0 °F 100% 29.92 in 10.0 mi NE 13.8 mph - 0.00 in   Overcast
3:55 AM 32.0 °F 22.5 °F 30.2 °F 93% 29.91 in 10.0 mi ENE 12.7 mph - 0.00 in   Mostly Cloudy
4:15 AM 32.0 °F 24.2 °F 32.0 °F 100% 29.91 in 10.0 mi East 9.2 mph - 0.00 in   Scattered Clouds
4:35 AM 32.0 °F 24.2 °F 32.0 °F 100% 29.88 in 4.0 mi NE 9.2 mph - 0.00 in   Overcast
4:55 AM 32.0 °F 20.5 °F 32.0 °F 100% 29.85 in 10.0 mi NNE 18.4 mph - 0.00 in   Scattered Clouds
5:15 AM 32.0 °F 21.6 °F 32.0 °F 100% 29.84 in 9.0 mi NNE 15.0 mph - 0.00 in   Partly Cloudy
5:35 AM 32.0 °F 20.8 °F 32.0 °F 100% 29.83 in 10.0 mi NNE 17.3 mph 24.2 mph 0.00 in   Mostly Cloudy
5:55 AM 32.0 °F 20.8 °F 30.2 °F 93% 29.83 in 10.0 mi NE 17.3 mph - 0.00 in   Overcast
6:15 AM 32.0 °F 22.1 °F 30.2 °F 93% 29.84 in 7.0 mi NE 13.8 mph - 0.00 in   Overcast
6:35 AM 32.0 °F 21.2 °F 30.2 °F 93% 29.83 in 2.0 mi ENE 16.1 mph - 0.00 in   Overcast
6:55 AM 32.0 °F 19.8 °F 30.2 °F 93% 29.84 in 1.2 mi ENE 20.7 mph 26.5 mph 0.00 in   Overcast
7:15 AM - - - N/A% 29.84 in 0.8 mi ENE 15.0 mph - 0.00 in   Overcast
7:35 AM 30.2 °F 18.5 °F 30.2 °F 100% 29.84 in 0.5 mi ENE 17.3 mph - 0.00 in   Overcast
7:55 AM 30.2 °F 19.3 °F 30.2 °F 100% 29.84 in 0.2 mi NE 15.0 mph - 0.00 in   Overcast
8:15 AM 30.2 °F 18.5 °F 30.2 °F 100% 29.83 in 0.2 mi NE 17.3 mph 23.0 mph 0.00 in   Overcast
8:35 AM 30.2 °F 18.9 °F 30.2 °F 100% 29.84 in 0.5 mi NE 16.1 mph - 0.00 in   Overcast
8:55 AM 30.2 °F 18.9 °F 30.2 °F 100% 29.84 in 0.2 mi NE 16.1 mph - 0.00 in   Overcast
9:15 AM 30.2 °F 18.5 °F 30.2 °F 100% 29.83 in 0.2 mi NE 17.3 mph - 0.00 in   Overcast
9:35 AM 30.2 °F 18.1 °F 30.2 °F 100% 29.83 in 0.5 mi NNE 18.4 mph - 0.00 in   Unknown
9:55 AM 30.2 °F 18.5 °F 30.2 °F 100% 29.83 in 0.2 mi NNE 17.3 mph - 0.00 in   Unknown
10:15 AM 30.2 °F 18.5 °F 30.2 °F 100% 29.83 in 0.2 mi NNE 17.3 mph - 0.01 in   Unknown
10:35 AM 30.2 °F 18.1 °F 30.2 °F 100% 29.82 in 0.2 mi NNE 18.4 mph - 0.01 in   Unknown
10:55 AM 30.2 °F 18.5 °F 30.2 °F 100% 29.82 in 0.2 mi NNE 17.3 mph - 0.01 in   Unknown
11:15 AM - - - N/A% 29.82 in - NE 16.1 mph - 0.00 in   Overcast
11:35 AM 32.0 °F 20.8 °F 32.0 °F 100% 29.83 in 0.8 mi NNE 17.3 mph 21.9 mph 0.00 in   Overcast
12:15 PM 32.0 °F 20.5 °F 32.0 °F 100% 29.83 in 1.5 mi NE 18.4 mph - 0.00 in   Overcast
12:35 PM 32.0 °F 20.5 °F 32.0 °F 100% 29.83 in 1.0 mi NE 18.4 mph - 0.00 in   Overcast
12:55 PM 32.0 °F 21.2 °F 32.0 °F 100% 29.82 in 4.0 mi NE 16.1 mph - 0.00 in   Overcast
1:15 PM 32.0 °F 20.8 °F 32.0 °F 100% 29.81 in 3.0 mi NE 17.3 mph - 0.00 in   Overcast
1:35 PM 32.0 °F 20.5 °F 32.0 °F 100% 29.81 in 3.0 mi NE 18.4 mph - 0.00 in   Unknown
1:55 PM 32.0 °F 20.5 °F 32.0 °F 100% 29.80 in 2.5 mi NE 18.4 mph - 0.00 in   Unknown
2:15 PM 32.0 °F 21.2 °F 32.0 °F 100% 29.80 in 3.0 mi NE 16.1 mph - 0.00 in   Unknown
2:35 PM 32.0 °F 20.8 °F 32.0 °F 100% 29.80 in 1.5 mi NNE 17.3 mph - 0.00 in   Overcast
2:55 PM 32.0 °F 20.1 °F 32.0 °F 100% 29.80 in 2.0 mi NNE 19.6 mph - 0.00 in   Overcast
3:15 PM 32.0 °F 20.5 °F 32.0 °F 100% 29.80 in 2.5 mi NNE 18.4 mph - 0.00 in   Overcast
3:35 PM 32.0 °F 21.2 °F 32.0 °F 100% 29.80 in 2.5 mi NNE 16.1 mph - 0.00 in   Overcast
3:55 PM 32.0 °F 20.8 °F 32.0 °F 100% 29.80 in 3.0 mi NNE 17.3 mph - 0.00 in   Overcast
4:15 PM 32.0 °F 20.8 °F 32.0 °F 100% 29.80 in 3.0 mi NNE 17.3 mph - 0.00 in   Unknown
4:35 PM 32.0 °F 20.1 °F 32.0 °F 100% 29.80 in 3.0 mi NNE 19.6 mph - 0.00 in   Unknown
4:55 PM 32.0 °F 20.1 °F 32.0 °F 100% 29.80 in 3.0 mi NNE 19.6 mph - 0.00 in   Overcast
5:15 PM 32.0 °F 20.1 °F 32.0 °F 100% 29.80 in 3.0 mi NNE 19.6 mph - 0.00 in   Overcast
5:35 PM 32.0 °F 20.5 °F 32.0 °F 100% 29.80 in 2.0 mi NNE 18.4 mph - 0.00 in   Unknown
5:55 PM 32.0 °F 20.5 °F 32.0 °F 100% 29.81 in 2.5 mi NNE 18.4 mph - 0.00 in   Unknown
6:15 PM - - - N/A% 29.81 in 1.5 mi NNE 17.3 mph - 0.00 in   Overcast
6:35 PM - - - N/A% 29.82 in 2.5 mi NNE 16.1 mph - 0.00 in   Overcast
6:55 PM 32.0 °F 21.2 °F 32.0 °F 100% 29.83 in 4.0 mi NNE 16.1 mph - 0.00 in   Overcast
7:15 PM 32.0 °F 21.2 °F 32.0 °F 100% 29.83 in 4.0 mi NNE 16.1 mph - 0.00 in   Overcast
7:35 PM 32.0 °F 21.6 °F 32.0 °F 100% 29.82 in 2.5 mi NNE 15.0 mph - 0.00 in   Unknown
7:55 PM - - - N/A% 29.82 in 3.0 mi NNE 15.0 mph - 0.00 in   Unknown
8:15 PM - - - N/A% 29.82 in 3.0 mi NNE 15.0 mph - 0.00 in   Overcast
8:35 PM 30.2 °F 19.8 °F 30.2 °F 100% 29.82 in 2.5 mi North 13.8 mph - 0.00 in   Overcast
8:55 PM 30.2 °F 19.3 °F 30.2 °F 100% 29.82 in 3.0 mi North 15.0 mph - 0.00 in   Unknown
9:15 PM 30.2 °F 19.8 °F 30.2 °F 100% 29.82 in 2.0 mi North 13.8 mph - 0.00 in   Unknown
9:35 PM 30.2 °F 18.9 °F 30.2 °F 100% 29.82 in 2.5 mi North 16.1 mph - 0.00 in   Unknown
9:55 PM 30.2 °F 18.9 °F 30.2 °F 100% 29.82 in 3.0 mi North 16.1 mph - 0.00 in   Overcast
10:15 PM 30.2 °F 18.5 °F 30.2 °F 100% 29.83 in 7.0 mi NNE 17.3 mph - 0.00 in   Overcast
10:35 PM 30.2 °F 18.9 °F 30.2 °F 100% 29.83 in 10.0 mi North 16.1 mph - 0.00 in   Overcast
10:55 PM 30.2 °F 19.8 °F 30.2 °F 100% 29.84 in 10.0 mi North 13.8 mph - 0.00 in   Overcast
11:15 PM 30.2 °F 19.3 °F 30.2 °F 100% 29.84 in 10.0 mi NNE 15.0 mph - 0.00 in   Overcast
11:35 PM 30.2 °F 20.2 °F 30.2 °F 100% 29.84 in 8.0 mi NNE 12.7 mph - 0.00 in   Unknown
11:55 PM 30.2 °F 19.8 °F 30.2 °F 100% 29.84 in 10.0 mi NNE 13.8 mph - 0.00 in   Unknown